User: anonymous   Login
Location: Unspecified
(0.0000°N, 0.0000°E)
Time: 19:15:44
(UTC+00:00)
Language:

SWISSCUBE - Orbit

View from above orbital plane
View from above orbital plane
View from above satellite
View from above satellite

Ground track
Ground track

The orbit data is extracted from the following two-line orbital elements,

1 35932U 09051B   14304.12008740  .00001817  00000-0  43499-3 0  4489
2 35932 098.3900 056.7412 0007116 330.0580 030.0209 14.54728518270651
Epoch (UTC): 31 October 2014 02:52:55
Eccentricity: 0.0007116
inclination: 98.3900°
perigee height: 705 km
apogee height: 715 km
right ascension of ascending node: 56.7412°
argument of perigee: 330.0580°
revolutions per day: 14.54728518
mean anomaly at epoch: 30.0209°
orbit number at epoch: 27065

The dashed part of the orbit path shows where the satellite is in the earth's shadow,  

DLR